Regional Weather Roundup
Issued by NWS Charleston, SC

Current Version | Previous Version | Text Only | Print | Product List | Glossary Off
Versions: 1 2 3 4 5 6 7 8 9 10 11 12 13 14 15 16 17 18 19 20 21 22 23 24 25 26 27 28 29 30 31 32 33 34 35 36 37 38 39 40 41 42 43 44 45 46 47 48 49 50
143 ASUS42 KCHS 111628 RWRCHS REGIONAL WEATHER ROUNDUP NATIONAL WEATHER SERVICE CHARLESTON SC 1100 AM EST THU FEB 11 2016 NOTE: "FAIR" INDICATES FEW OR NO CLOUDS BELOW 12,000 FEET WITH NO SIGNIFICANT WEATHER AND/OR OBSTRUCTIONS TO VISIBILITY. NOT ALL STATIONS ARE QUALITY CONTROLLED BY THE NATIONAL WEATHER SERVICE. USE DATA WITH CAUTION...ESPECIALLY DEWPOINT OBSERVATIONS. SCZ027-030-031-034>040-042>050-111700- ...SOUTHEAST SOUTH CAROLINA... CITY SKY/WX TMP DP RH WIND PRES REMARKS N CHARLESTON SUNNY 46 16 30 W7 30.27F WATERFRONT PRK N/A 42 17 36 W7 30.13S MOUNT PLEASANT FAIR 45 21 39 W6 30.27F JOHNS ISLAND FAIR 46 18 31 VRB6 30.27F PINOPOLIS N/A 37 19 48 W5 30.20R WCI 34 MONCKS CORNER FAIR 41 16 36 SW7 30.26F SUMMERVILLE FAIR 45 21 39 W3 30.27F BEAUFORT MCAS SUNNY 48 16 27 VRB3 30.27F BEAUFORT ARPT FAIR 46 16 29 NW3 30.27S HAZE HILTON HEAD IS SUNNY 48 16 27 SW7 30.28F WALTERBORO SUNNY 48 14 25 CALM 30.26F ALLENDALE FAIR 46 16 29 CALM 30.25F ...SOUTHERN MIDLANDS AND PEE DEE... CITY SKY/WX TMP DP RH WIND PRES REMARKS GEORGETOWN FAIR 41 19 42 NW7 30.27S KINGSTREE FAIR 39 18 41 W7 30.27S WCI 34 ORANGEBURG SUNNY 42 15 33 SW5 30.26S BARNWELL FAIR 48 18 29 W7 30.25F AIKEN FAIR 43 18 36 SW5 30.26S MANNING FAIR 39 19 45 SW6 30.26F WCI 35 COLUMBIA CLOUDY 41 15 35 VRB3 30.25F SUMTER CLOUDY 39 18 42 VRB5 30.24S WCI 35 FLORENCE SUNNY 38 11 32 W8 30.26R WCI 32 MYRTLE BEACH SUNNY 41 12 30 NW8 30.28F N MYRTLE BEACH SUNNY 39 12 33 W7 30.25S WCI 34 $$ GAZ063-065-086>088-099>101-113>116-118-119-134>141-150-111700- ...SOUTHEAST GEORGIA... CITY SKY/WX TMP DP RH WIND PRES REMARKS SAVANNAH ARPT SUNNY 49 17 28 CALM 30.28F HUNTER AAF SUNNY 49 19 29 VRB2 30.25F FORT STEWART SUNNY 50 21 31 VRB1 30.25F STATESBORO SUNNY 52 6 15 S3 30.26S SYLVANIA SUNNY 48 22 36 SW5 30.27S CLAXTON FAIR 51 28 40 CALM 30.26F ...CSRA...CENTRAL AND FAR SOUTHEAST GEORGIA... CITY SKY/WX TMP DP RH WIND PRES REMARKS THOMSON SUNNY 47 21 35 CALM 30.26F AUGUSTA-BUSH SUNNY 46 15 28 N5 30.24F AUGUSTA-DANIEL NOT AVBL SWAINSBORO FAIR 46 19 34 S6 30.25S VIDALIA SUNNY 52 27 37 S3 30.24F EASTMAN FAIR 54 30 39 W5 30.25F HAZLEHURST FAIR 56 30 37 W6 30.23F ALMA SUNNY 53 30 41 SW9 30.25F WAYCROSS SUNNY 60 37 43 W9 30.26F JESUP FAIR 57 32 38 W6 30.26F BAXLEY FAIR 55 32 41 W8 30.25F BRUNSWICK SUNNY 55 30 38 SW7 30.28F SAINT SIMONS SUNNY 50 25 37 SW8 30.29F $$ SCZ027-028-034-036>038-045-046-048>050-GAZ119-141-111700- ...LAKE AND SUPPLEMENTAL COASTAL OBSERVATIONS... STATION/POSITION TIME TEMP WIND PRES WAVE SWELL AIR SEA DIR/SP/G HT/PER HT/PER/DIR (UTC) (F) (DEG/KT/KT) (MB) (FT/S) (FT/S/D) WINYAH BAY 1500 36 270/ 7 1024.0 LAKE MURRAY 1500 37 230/ 5/ 9 1024.0R ACE BASIN NERRS 1545 45 270/ 3 1025.0S FORT PULASKI 1600 50 190/ 3/ 5 1025.5F SAPELO ISLAND 1600 51 220/ 4 1025.0F $$ ANZ835-935-AMZ111-154-330-350-352-354-370-450-454-472-111700- ...C-MAN AND BUOY OBSERVATIONS... STATION/POSITION TIME TEMP WIND PRES WAVE SWELL AIR SEA DIR/SP/G HT/PER HT/PER/DIR (UTC) (F) (DEG/KT/KT) (MB) (FT/S) (FT/S/D) BUOY 41004 NOT AVBL BUOY 41008 NOT AVBL FOLLY BEACH CMAN 1500 42 290/ 6/ 9 1025.6F CAPERS NEARSHORE 1508 39 290/ 10/ 16 1025.0S FRIPP NEARSHORE 1500 44 290/ 10/ 12 1024.5 STATION/POSITION TIME TEMP WIND PRES WAVE SWELL AIR SEA DIR/SP/G HT/PER HT/PER/DIR (UTC) (F) (DEG/KT/KT) (MB) (FT/S) (FT/S/D) 5E ST. MARYS GA 1521 55 N/A 1/13 2/ 80/13 FRYING PAN BUOY NOT AVBL BUOY 41025 NOT AVBL CAPE LOOKOUT NC NOT AVBL BUOY 41002 NOT AVBL BUOY 41010 NOT AVBL ST AUGUSTINE FL 1500 52 55 300/ 3/ 4 1027.6F $$

USA.gov is the U.S. government's official web portal to all federal, state and local government web resources and services.